Location: Lane
(33.5226°N, 79.8788°W)
Time: 21:31:42
(UTC+00:00)

Vanguard 2 Rocket - Pass Details

Date: 11 October 2022
Orbit: 555 x 3321 km, 32.9° (Epoch: 28 November)

Event Time Altitude Azimuth Distance (km) Brightness Sun altitude
Rises 22:57:57 0° 217° (SW) 6,749 12.1 -2.3°
Reaches altitude 10° 23:02:29 10° 211° (SSW) 5,965 11.6 -3.3°
Maximum altitude 23:20:36 46° 146° (SE) 4,016 9.9 -7.0°
Enters shadow 23:36:46 11° 82° (E) 5,469 10.2 -10.4°
